| time (UTC) | temp F | wind direction | speed MPH | gust MPH | rain 1hr in | rain 24hr in | rain mn in | humidity % | barometer mb |
| 20260507100526 | 41 | 0.0 | 0.0 | 0.00 | 0.57 | 0.00 | 99 | ||
| 20260507095606 | 42 | 0.0 | 0.0 | 0.00 | 0.57 | 0.00 | 99 | ||
| 20260507094526 | 42 | 0.0 | 0.0 | 0.00 | 0.57 | 0.00 | 99 | ||
| 20260507093622 | 42 | 0.0 | 0.0 | 0.00 | 0.57 | 0.00 | 99 | ||
| 20260507092526 | 42 | 0.0 | 0.0 | 0.00 | 0.57 | 0.00 | 99 | ||
| 20260507091703 | 42 | 0.0 | 0.0 | 0.00 | 0.57 | 0.00 | 99 | ||
| 20260507090546 | 42 | 0.0 | 0.0 | 0.00 | 0.57 | 0.00 | 99 | ||
| 20260507085949 | 42 | 0.0 | 0.0 | 0.00 | 0.57 | 0.00 | 99 | ||
| 20260507084546 | 42 | 0.0 | 0.0 | 0.00 | 0.57 | 0.00 | 99 | ||
| 20260507083526 | 42 | 0.0 | 0.0 | 0.00 | 0.57 | 0.00 | 99 | ||
| 20260507082606 | 42 | 0.0 | 0.0 | 0.00 | 0.57 | 0.00 | 99 | ||
| 20260507081526 | 42 | 0.0 | 0.0 | 0.00 | 0.57 | 0.00 | 99 | ||
| 20260507080526 | 42 | 0.0 | 0.0 | 0.00 | 0.57 | 0.00 | 99 | ||
| 20260507075526 | 43 | 0.0 | 0.0 | 0.00 | 0.57 | 0.00 | 99 | ||
| 20260507074526 | 43 | 0.0 | 0.0 | 0.00 | 0.57 | 0.00 | 99 | ||
| 20260507073547 | 43 | 0.0 | 0.0 | 0.00 | 0.57 | 0.00 | 99 | ||
| 20260507072526 | 43 | 0.0 | 0.0 | 0.00 | 0.57 | 0.00 | 99 | ||
| 20260507071526 | 43 | 0.0 | 0.0 | 0.00 | 0.57 | 0.00 | 99 | ||
| 20260507070526 | 43 | 0.0 | 0.0 | 0.00 | 0.57 | 0.00 | 99 | ||
| 20260507065545 | 43 | 0.0 | 0.0 | 0.00 | 0.57 | 0.00 | 99 | ||
| 20260507064622 | 43 | 0.0 | 0.0 | 0.00 | 0.57 | 0.00 | 99 | ||
| 20260507063641 | 0 | 0.0 | 0.0 | 0.00 | 0.57 | 0.00 | |||
| 20260507062545 | 43 | 0.0 | 0.0 | 0.00 | 0.57 | 0.00 | 99 | ||
| 20260507061526 | 43 | 0.0 | 0.0 | 0.00 | 0.57 | 0.00 | 99 | ||
| 20260507060546 | 43 | 0.0 | 0.0 | 0.00 | 0.57 | 0.00 | 99 | ||
| 20260507055526 | 43 | 0.0 | 0.0 | 0.00 | 0.58 | 0.00 | 99 | ||
| 20260507054526 | 43 | 0.0 | 0.0 | 0.00 | 0.58 | 0.00 | 99 | ||
| 20260507053622 | 43 | 0.0 | 0.0 | 0.00 | 0.60 | 0.00 | 99 | ||
| 20260507052527 | 43 | 0.0 | 0.0 | 0.00 | 0.61 | 0.00 | 99 | ||
| 20260507051526 | 43 | 0.0 | 0.0 | 0.00 | 0.64 | 0.00 | 99 | ||
| 20260507050622 | 43 | 0.0 | 0.0 | 0.00 | 0.68 | 0.00 | 99 | ||
| 20260507044526 | 0 | 0.0 | 0.0 | 0.00 | 0.69 | 0.00 | |||
| 20260507043526 | 43 | 0.0 | 0.0 | 0.00 | 0.70 | 0.00 | 99 | ||
| 20260507043104 | 44 | 0.0 | 0.0 | 0.00 | 0.71 | 0.00 | 99 | ||
| 20260507023816 | 45 | 0.0 | 0.0 | 0.03 | 0.72 | 0.72 | 99 | ||
| 20260507010623 | 0 | 0.0 | 0.0 | 0.02 | 0.69 | 0.69 | |||
| 20260507003045 | 0 | 0.0 | 0.0 | 0.03 | 0.69 | 0.69 | |||
| 20260506234526 | 46 | 0.0 | 0.0 | 0.02 | 0.67 | 0.67 | 97 | ||
| 20260506233526 | 46 | 23 | 1.0 | 2.0 | 0.02 | 0.67 | 0.67 | 97 | |
| 20260506232526 | 46 | 0.0 | 0.0 | 0.01 | 0.66 | 0.66 | 97 | ||
| 20260506231526 | 46 | 23 | 2.0 | 2.0 | 0.01 | 0.66 | 0.66 | 96 | |
| 20260506230526 | 46 | 23 | 2.0 | 2.0 | 0.00 | 0.65 | 0.65 | 96 | |
| 20260506225526 | 47 | 17 | 2.0 | 2.0 | 0.00 | 0.65 | 0.65 | 96 | |
| 20260506224545 | 47 | 25 | 1.0 | 2.0 | 0.00 | 0.65 | 0.65 | 96 | |
| 20260506223526 | 47 | 36 | 1.0 | 2.0 | 0.00 | 0.65 | 0.65 | 96 | |
| 20260506222526 | 48 | 18 | 2.0 | 3.0 | 0.00 | 0.65 | 0.65 | 96 | |
| 20260506221547 | 48 | 21 | 1.0 | 3.0 | 0.00 | 0.65 | 0.65 | 97 | |
| 20260506220546 | 48 | 0 | 1.0 | 2.0 | 0.00 | 0.65 | 0.65 | 97 | |
| 20260506215526 | 48 | 346 | 1.0 | 2.0 | 0.01 | 0.65 | 0.65 | 96 | |
| 20260506214526 | 48 | 327 | 1.0 | 2.0 | 0.01 | 0.65 | 0.65 | 96 | |
| 20260506213546 | 0 | 0.0 | 0.0 | 0.01 | 0.65 | 0.65 | |||
| 20260506212948 | 48 | 270 | 2.0 | 2.0 | 0.01 | 0.65 | 0.65 | 96 | |
| 20260506210623 | 48 | 1.0 | 2.0 | 0.05 | 0.65 | 0.65 | 97 | ||
| 20260506205237 | 48 | 0.0 | 0.0 | 0.04 | 0.65 | 0.64 | 97 | ||
| 20260506194641 | 0 | 0 | 3.0 | 3.0 | 0.03 | 0.63 | 0.59 | ||
| 20260506192352 | 50 | 2.0 | 2.0 | 0.01 | 0.61 | 0.57 | 94 | ||
| 20260506190525 | 51 | 17 | 2.0 | 3.0 | 0.02 | 0.61 | 0.57 | 94 | |
| 20260506185525 | 51 | 12 | 3.0 | 4.0 | 0.06 | 0.61 | 0.57 | 94 | |
| 20260506184526 | 51 | 3 | 2.0 | 4.0 | 0.05 | 0.60 | 0.56 | 95 | |
| 20260506183525 | 52 | 324 | 3.0 | 5.0 | 0.15 | 0.60 | 0.56 | 95 | |
| 20260506182526 | 52 | 3.0 | 3.0 | 0.15 | 0.60 | 0.56 | 96 | ||
| 20260506181603 | 52 | 338 | 3.0 | 4.0 | 0.15 | 0.60 | 0.56 | 95 | |
| 20260506180218 | 53 | 3.0 | 3.0 | 0.10 | 0.55 | 0.51 | 96 | ||
| 20260506162525 | 56 | 0.0 | 0.0 | 0.07 | 0.43 | 0.39 | 96 | ||
| 20260506161546 | 56 | 0.0 | 0.0 | 0.06 | 0.41 | 0.37 | 96 | ||
| 20260506160603 | 56 | 0.0 | 0.0 | 0.05 | 0.39 | 0.35 | 96 | ||
| 20260506155141 | 56 | 0.0 | 0.0 | 0.07 | 0.39 | 0.35 | 95 | ||
| 20260506154026 | 55 | 0.0 | 0.0 | 0.07 | 0.38 | 0.34 | 95 | ||
| 20260506153140 | 55 | 0.0 | 0.0 | 0.06 | 0.36 | 0.32 | 95 | ||
| 20260506152122 | 55 | 0.0 | 2.0 | 0.06 | 0.36 | 0.32 | 95 | ||
| 20260506151104 | 55 | 0.0 | 0.0 | 0.06 | 0.34 | 0.30 | 95 | ||
| 20260506150025 | 55 | 0.0 | 0.0 | 0.06 | 0.33 | 0.29 | 94 | ||
| 20260506145026 | 55 | 0.0 | 0.0 | 0.06 | 0.32 | 0.28 | 94 | ||
| 20260506144025 | 55 | 0.0 | 0.0 | 0.06 | 0.31 | 0.27 | 95 | ||
| 20260506143025 | 55 | 0.0 | 0.0 | 0.05 | 0.30 | 0.26 | 95 | ||
| 20260506142026 | 55 | 0.0 | 0.0 | 0.06 | 0.30 | 0.26 | 95 | ||
| 20260506141025 | 55 | 0.0 | 0.0 | 0.04 | 0.29 | 0.24 | 95 | ||
| 20260506140046 | 55 | 0.0 | 0.0 | 0.05 | 0.28 | 0.23 | 97 | ||
| 20260506135025 | 54 | 0.0 | 0.0 | 0.05 | 0.27 | 0.22 | 97 | ||
| 20260506134025 | 54 | 0.0 | 0.0 | 0.05 | 0.26 | 0.21 | 97 | ||
| 20260506133046 | 54 | 0.0 | 0.0 | 0.05 | 0.26 | 0.21 | 97 | ||
| 20260506132025 | 54 | 0.0 | 0.0 | 0.04 | 0.25 | 0.20 | 98 | ||
| 20260506131026 | 54 | 0.0 | 0.0 | 0.04 | 0.25 | 0.20 | 99 | ||
| 20260506130025 | 54 | 0.0 | 0.0 | 0.02 | 0.23 | 0.18 | 99 | ||
| 20260506125026 | 54 | 0.0 | 1.0 | 0.02 | 0.22 | 0.17 | 99 | ||
| 20260506124025 | 54 | 0.0 | 0.0 | 0.01 | 0.21 | 0.16 | 99 | ||
| 20260506123025 | 54 | 0.0 | 0.0 | 0.01 | 0.21 | 0.16 | 99 | ||
| 20260506122026 | 54 | 158 | 0.0 | 2.0 | 0.01 | 0.21 | 0.16 | 99 | |
| 20260506121025 | 53 | 158 | 1.0 | 3.0 | 0.01 | 0.21 | 0.16 | 99 | |
| 20260506120025 | 53 | 0.0 | 0.0 | 0.01 | 0.21 | 0.16 | 99 | ||
| 20260506115026 | 53 | 0.0 | 0.0 | 0.00 | 0.20 | 0.15 | 99 | ||
| 20260506114025 | 53 | 0.0 | 0.0 | 0.00 | 0.20 | 0.15 | 99 | ||
| 20260506113026 | 53 | 0.0 | 0.0 | 0.00 | 0.20 | 0.15 | 99 | ||
| 20260506112025 | 53 | 0.0 | 0.0 | 0.00 | 0.20 | 0.15 | 99 | ||
| 20260506111025 | 53 | 0.0 | 0.0 | 0.00 | 0.20 | 0.15 | 99 | ||
| 20260506110026 | 53 | 0.0 | 0.0 | 0.00 | 0.20 | 0.15 | 99 | ||
| 20260506105025 | 53 | 0.0 | 0.0 | 0.00 | 0.20 | 0.15 | 99 |